owner,sensor,date,latitude,longitude,air_pressure(mBar),qcFlag 
TABS,ioos:station:wmo:42043:1,2015-08-08T13:30:00Z,28.9818,-94.9186,1014.58,11111222 
TABS,ioos:station:wmo:42043:1,2015-08-08T14:00:00Z,28.9818,-94.9186,1014.72,11111222 
TABS,ioos:station:wmo:42043:1,2015-08-08T14:30:00Z,28.9818,-94.9186,1014.64,11111222 
TABS,ioos:station:wmo:42043:1,2015-08-08T15:00:00Z,28.9818,-94.9186,1015.02,11111222 
TABS,ioos:station:wmo:42043:1,2015-08-08T15:30:00Z,28.9818,-94.9186,1015.0,11111222 
TABS,ioos:station:wmo:42043:1,2015-08-08T16:00:00Z,28.9818,-94.9186,1015.13,11111222 
TABS,ioos:station:wmo:42043:1,2015-08-08T16:30:00Z,28.9818,-94.9186,1015.19,11111222 
TABS,ioos:station:wmo:42043:1,2015-08-08T17:00:00Z,28.9818,-94.9186,1014.94,11111222 
TABS,ioos:station:wmo:42043:1,2015-08-08T17:30:00Z,28.9818,-94.9186,1014.69,11111222 
TABS,ioos:station:wmo:42043:1,2015-08-08T18:00:00Z,28.9818,-94.9186,1014.73,11111222 
TABS,ioos:station:wmo:42043:1,2015-08-08T18:30:00Z,28.9818,-94.9186,1014.6,11111222 
TABS,ioos:station:wmo:42043:1,2015-08-08T19:00:00Z,28.9818,-94.9186,1014.27,11111222 
TABS,ioos:station:wmo:42043:1,2015-08-08T19:30:00Z,28.9818,-94.9186,1014.16,11111222 
TABS,ioos:station:wmo:42043:1,2015-08-08T20:00:00Z,28.9818,-94.9186,1013.96,11111222 
TABS,ioos:station:wmo:42043:1,2015-08-08T20:30:00Z,28.9818,-94.9186,1013.73,11111222 
TABS,ioos:station:wmo:42043:1,2015-08-08T21:00:00Z,28.9818,-94.9186,1013.54,11111222 
TABS,ioos:station:wmo:42043:1,2015-08-08T21:30:00Z,28.9818,-94.9186,1013.55,11111222 
TABS,ioos:station:wmo:42043:1,2015-08-08T22:00:00Z,28.9818,-94.9186,1013.32,11111222 
TABS,ioos:station:wmo:42043:1,2015-08-08T22:30:00Z,28.9818,-94.9186,1013.15,11111222 
TABS,ioos:station:wmo:42043:1,2015-08-08T23:00:00Z,28.9818,-94.9186,1012.94,11111222 
TABS,ioos:station:wmo:42043:1,2015-08-08T23:30:00Z,28.9818,-94.9186,1012.67,11111222 
TABS,ioos:station:wmo:42043:1,2015-08-09T00:00:00Z,28.9818,-94.9186,1012.69,11111222 
TABS,ioos:station:wmo:42043:1,2015-08-09T00:30:00Z,28.9818,-94.9186,1012.58,11111222 
TABS,ioos:station:wmo:42043:1,2015-08-09T01:00:00Z,28.9818,-94.9186,1012.83,11111222 
TABS,ioos:station:wmo:42043:1,2015-08-09T01:30:00Z,28.9818,-94.9186,1013.16,11111222 
TABS,ioos:station:wmo:42043:1,2015-08-09T02:00:00Z,28.9818,-94.9186,1013.61,11111222 
TABS,ioos:station:wmo:42043:1,2015-08-09T02:30:00Z,28.9818,-94.9186,1013.56,11111222 
TABS,ioos:station:wmo:42043:1,2015-08-09T03:00:00Z,28.9818,-94.9186,1014.03,11111222 
TABS,ioos:station:wmo:42043:1,2015-08-09T03:30:00Z,28.9818,-94.9186,1014.17,11111222 
TABS,ioos:station:wmo:42043:1,2015-08-09T04:00:00Z,28.9818,-94.9186,1013.81,11111222 
TABS,ioos:station:wmo:42043:1,2015-08-09T04:30:00Z,28.9818,-94.9186,1014.02,11111222 
TABS,ioos:station:wmo:42043:1,2015-08-09T05:00:00Z,28.9818,-94.9186,1014.45,11111222 
TABS,ioos:station:wmo:42043:1,2015-08-09T05:30:00Z,28.9818,-94.9186,1014.54,11111222 
TABS,ioos:station:wmo:42043:1,2015-08-09T06:00:00Z,28.9818,-94.9186,1014.69,11111222 
TABS,ioos:station:wmo:42043:1,2015-08-09T06:30:00Z,28.9818,-94.9186,1014.43,11111222 
TABS,ioos:station:wmo:42043:1,2015-08-09T07:00:00Z,28.9818,-94.9186,1014.04,11111222 
TABS,ioos:station:wmo:42043:1,2015-08-09T07:30:00Z,28.9818,-94.9186,1013.7,11111222 
TABS,ioos:station:wmo:42043:1,2015-08-09T08:00:00Z,28.9818,-94.9186,1013.26,11111222 
TABS,ioos:station:wmo:42043:1,2015-08-09T08:30:00Z,28.9818,-94.9186,1013.26,11111222 
TABS,ioos:station:wmo:42043:1,2015-08-09T09:00:00Z,28.9818,-94.9186,1013.42,11111222 
TABS,ioos:station:wmo:42043:1,2015-08-09T09:30:00Z,28.9818,-94.9186,1013.38,11111222 
TABS,ioos:station:wmo:42043:1,2015-08-09T10:00:00Z,28.9818,-94.9186,1013.25,11111222 
TABS,ioos:station:wmo:42043:1,2015-08-09T10:30:00Z,28.9818,-94.9186,1013.44,11111222 
TABS,ioos:station:wmo:42043:1,2015-08-09T11:00:00Z,28.9818,-94.9186,1013.15,11111222 
TABS,ioos:station:wmo:42043:1,2015-08-09T11:30:00Z,28.9818,-94.9186,1013.33,11111222 
TABS,ioos:station:wmo:42043:1,2015-08-09T12:00:00Z,28.9818,-94.9186,1013.49,11111222 
TABS,ioos:station:wmo:42043:1,2015-08-09T12:30:00Z,28.9818,-94.9186,1013.97,11111222 
TABS,ioos:station:wmo:42043:1,2015-08-09T13:00:00Z,28.9818,-94.9186,1014.38,11111222 
TABS,ioos:station:wmo:42043:1,2015-08-09T13:30:00Z,28.9818,-94.9186,1014.43,11111222 
TABS,ioos:station:wmo:42043:1,2015-08-09T14:00:00Z,28.9818,-94.9186,1014.57,11111222 
TABS,ioos:station:wmo:42043:1,2015-08-09T14:30:00Z,28.9818,-94.9186,1014.95,11111222 
TABS,ioos:station:wmo:42043:1,2015-08-09T15:00:00Z,28.9818,-94.9186,1015.26,11111222 
TABS,ioos:station:wmo:42043:1,2015-08-09T15:30:00Z,28.9818,-94.9186,1015.37,11111222 
TABS,ioos:station:wmo:42043:1,2015-08-09T16:00:00Z,28.9818,-94.9186,1015.39,11111222 
TABS,ioos:station:wmo:42043:1,2015-08-09T16:30:00Z,28.9818,-94.9186,1015.36,11111222 
TABS,ioos:station:wmo:42043:1,2015-08-09T17:00:00Z,28.9818,-94.9186,1015.41,11111222 
TABS,ioos:station:wmo:42043:1,2015-08-09T17:30:00Z,28.9818,-94.9186,1015.04,11111222 
TABS,ioos:station:wmo:42043:1,2015-08-09T18:00:00Z,28.9818,-94.9186,1014.93,11111222 
TABS,ioos:station:wmo:42043:1,2015-08-09T18:30:00Z,28.9818,-94.9186,1014.85,11111222 
TABS,ioos:station:wmo:42043:1,2015-08-09T19:00:00Z,28.9818,-94.9186,1014.45,11111222 
TABS,ioos:station:wmo:42043:1,2015-08-09T19:30:00Z,28.9818,-94.9186,1014.3,11111222 
TABS,ioos:station:wmo:42043:1,2015-08-09T20:00:00Z,28.9818,-94.9186,1014.24,11111222 
TABS,ioos:station:wmo:42043:1,2015-08-09T20:30:00Z,28.9818,-94.9186,1013.98,11111222 
TABS,ioos:station:wmo:42043:1,2015-08-09T21:00:00Z,28.9818,-94.9186,1013.9,11111222 
TABS,ioos:station:wmo:42043:1,2015-08-09T21:30:00Z,28.9818,-94.9186,1013.78,11111222 
TABS,ioos:station:wmo:42043:1,2015-08-09T22:00:00Z,28.9818,-94.9186,1013.62,11111222 
TABS,ioos:station:wmo:42043:1,2015-08-09T22:30:00Z,28.9818,-94.9186,1013.44,11111222 
TABS,ioos:station:wmo:42043:1,2015-08-09T23:00:00Z,28.9818,-94.9186,1013.1,11111222 
TABS,ioos:station:wmo:42043:1,2015-08-09T23:30:00Z,28.9818,-94.9186,1012.91,11111222 
TABS,ioos:station:wmo:42043:1,2015-08-10T00:00:00Z,28.9818,-94.9186,1012.74,11111222 
TABS,ioos:station:wmo:42043:1,2015-08-10T00:30:00Z,28.9818,-94.9186,1012.81,11111222 
TABS,ioos:station:wmo:42043:1,2015-08-10T01:00:00Z,28.9818,-94.9186,1012.85,11111222 
TABS,ioos:station:wmo:42043:1,2015-08-10T01:30:00Z,28.9818,-94.9186,1013.16,11111222 
TABS,ioos:station:wmo:42043:1,2015-08-10T02:00:00Z,28.9818,-94.9186,1013.62,11111222 
TABS,ioos:station:wmo:42043:1,2015-08-10T02:30:00Z,28.9818,-94.9186,1013.8,11111222 
TABS,ioos:station:wmo:42043:1,2015-08-10T03:00:00Z,28.9818,-94.9186,1013.91,11111222 
TABS,ioos:station:wmo:42043:1,2015-08-10T03:30:00Z,28.9818,-94.9186,1013.71,11111222 
TABS,ioos:station:wmo:42043:1,2015-08-10T04:00:00Z,28.9818,-94.9186,1013.58,11111222 
TABS,ioos:station:wmo:42043:1,2015-08-10T04:30:00Z,28.9818,-94.9186,1013.56,11111222 
TABS,ioos:station:wmo:42043:1,2015-08-10T05:00:00Z,28.9818,-94.9186,1013.48,11111222 
TABS,ioos:station:wmo:42043:1,2015-08-10T05:30:00Z,28.9818,-94.9186,1013.56,11111222 
TABS,ioos:station:wmo:42043:1,2015-08-10T06:00:00Z,28.9818,-94.9186,1013.27,11111222 
TABS,ioos:station:wmo:42043:1,2015-08-10T06:30:00Z,28.9818,-94.9186,1013.08,11111222 
TABS,ioos:station:wmo:42043:1,2015-08-10T07:00:00Z,28.9818,-94.9186,1012.94,11111222 
TABS,ioos:station:wmo:42043:1,2015-08-10T07:30:00Z,28.9818,-94.9186,1012.81,11111222 
TABS,ioos:station:wmo:42043:1,2015-08-10T08:00:00Z,28.9818,-94.9186,1012.76,11111222 
TABS,ioos:station:wmo:42043:1,2015-08-10T08:30:00Z,28.9818,-94.9186,1012.93,11111222 
TABS,ioos:station:wmo:42043:1,2015-08-10T09:00:00Z,28.9818,-94.9186,1012.88,11111222 
TABS,ioos:station:wmo:42043:1,2015-08-10T09:30:00Z,28.9818,-94.9186,1013.39,11111222 
TABS,ioos:station:wmo:42043:1,2015-08-10T10:00:00Z,28.9818,-94.9186,1013.16,11111222 
TABS,ioos:station:wmo:42043:1,2015-08-10T10:30:00Z,28.9818,-94.9186,1013.04,11111222 
TABS,ioos:station:wmo:42043:1,2015-08-10T11:00:00Z,28.9818,-94.9186,1012.84,11111222 
TABS,ioos:station:wmo:42043:1,2015-08-10T11:30:00Z,28.9818,-94.9186,1013.06,11111222 
TABS,ioos:station:wmo:42043:1,2015-08-10T12:00:00Z,28.9818,-94.9186,1013.31,11111222 
TABS,ioos:station:wmo:42043:1,2015-08-10T12:30:00Z,28.9818,-94.9186,1013.52,11111222 
TABS,ioos:station:wmo:42043:1,2015-08-10T13:00:00Z,28.9818,-94.9186,1013.84,11111222 
TABS,ioos:station:wmo:42043:1,2015-08-10T13:30:00Z,28.9818,-94.9186,1014.09,11111222 
TABS,ioos:station:wmo:42043:1,2015-08-10T14:00:00Z,28.9818,-94.9186,1014.36,11111222 
TABS,ioos:station:wmo:42043:1,2015-08-10T14:30:00Z,28.9818,-94.9186,1014.71,11111222 
TABS,ioos:station:wmo:42043:1,2015-08-10T15:00:00Z,28.9818,-94.9186,1014.88,11111222 
TABS,ioos:station:wmo:42043:1,2015-08-10T15:30:00Z,28.9818,-94.9186,1014.82,11111222 
TABS,ioos:station:wmo:42043:1,2015-08-10T16:00:00Z,28.9818,-94.9186,1014.81,11111222 
TABS,ioos:station:wmo:42043:1,2015-08-10T16:30:00Z,28.9818,-94.9186,1014.53,11111222 
TABS,ioos:station:wmo:42043:1,2015-08-10T17:00:00Z,28.9818,-94.9186,1014.45,11111222 
TABS,ioos:station:wmo:42043:1,2015-08-10T17:30:00Z,28.9818,-94.9186,1014.54,11111222 
TABS,ioos:station:wmo:42043:1,2015-08-10T18:00:00Z,28.9818,-94.9186,1014.55,11111222 
TABS,ioos:station:wmo:42043:1,2015-08-10T18:30:00Z,28.9818,-94.9186,1014.46,11111222 
TABS,ioos:station:wmo:42043:1,2015-08-10T19:00:00Z,28.9818,-94.9186,1014.45,11111222 
TABS,ioos:station:wmo:42043:1,2015-08-10T19:30:00Z,28.9818,-94.9186,1014.12,11111222 
TABS,ioos:station:wmo:42043:1,2015-08-10T20:00:00Z,28.9818,-94.9186,1013.68,11111222 
TABS,ioos:station:wmo:42043:1,2015-08-10T20:30:00Z,28.9818,-94.9186,1012.97,11111222 
TABS,ioos:station:wmo:42043:1,2015-08-10T21:00:00Z,28.9818,-94.9186,1012.67,11111222 
TABS,ioos:station:wmo:42043:1,2015-08-10T21:30:00Z,28.9818,-94.9186,1012.62,11111222 
TABS,ioos:station:wmo:42043:1,2015-08-10T22:00:00Z,28.9818,-94.9186,1012.74,11111222 
TABS,ioos:station:wmo:42043:1,2015-08-10T22:30:00Z,28.9818,-94.9186,1012.6,11111222 
TABS,ioos:station:wmo:42043:1,2015-08-10T23:00:00Z,28.9818,-94.9186,1012.55,11111222 
TABS,ioos:station:wmo:42043:1,2015-08-10T23:30:00Z,28.9818,-94.9186,1012.58,11111222 
TABS,ioos:station:wmo:42043:1,2015-08-11T00:00:00Z,28.9818,-94.9186,1012.42,11111222 
TABS,ioos:station:wmo:42043:1,2015-08-11T00:30:00Z,28.9818,-94.9186,1012.14,11111222 
TABS,ioos:station:wmo:42043:1,2015-08-11T01:00:00Z,28.9818,-94.9186,1012.16,11111222 
TABS,ioos:station:wmo:42043:1,2015-08-11T01:30:00Z,28.9818,-94.9186,1012.31,11111222 
TABS,ioos:station:wmo:42043:1,2015-08-11T02:00:00Z,28.9818,-94.9186,1012.74,11111222 
TABS,ioos:station:wmo:42043:1,2015-08-11T02:30:00Z,28.9818,-94.9186,1012.83,11111222 
TABS,ioos:station:wmo:42043:1,2015-08-11T03:00:00Z,28.9818,-94.9186,1013.23,11111222 
TABS,ioos:station:wmo:42043:1,2015-08-11T03:30:00Z,28.9818,-94.9186,1013.25,11111222 
TABS,ioos:station:wmo:42043:1,2015-08-11T04:00:00Z,28.9818,-94.9186,1013.39,11111222 
TABS,ioos:station:wmo:42043:1,2015-08-11T04:30:00Z,28.9818,-94.9186,1013.21,11111222 
TABS,ioos:station:wmo:42043:1,2015-08-11T05:00:00Z,28.9818,-94.9186,1013.28,11111222 
TABS,ioos:station:wmo:42043:1,2015-08-11T05:30:00Z,28.9818,-94.9186,1013.24,11111222 
TABS,ioos:station:wmo:42043:1,2015-08-11T06:00:00Z,28.9818,-94.9186,1013.31,11111222 
TABS,ioos:station:wmo:42043:1,2015-08-11T06:30:00Z,28.9818,-94.9186,1013.22,11111222 
TABS,ioos:station:wmo:42043:1,2015-08-11T07:00:00Z,28.9818,-94.9186,1013.19,11111222 
TABS,ioos:station:wmo:42043:1,2015-08-11T07:30:00Z,28.9818,-94.9186,1013.4,11111222 
TABS,ioos:station:wmo:42043:1,2015-08-11T08:00:00Z,28.9818,-94.9186,1013.61,11111222 
TABS,ioos:station:wmo:42043:1,2015-08-11T08:30:00Z,28.9818,-94.9186,1013.82,11111222 
TABS,ioos:station:wmo:42043:1,2015-08-11T09:00:00Z,28.9818,-94.9186,1013.85,11111222 
TABS,ioos:station:wmo:42043:1,2015-08-11T09:30:00Z,28.9818,-94.9186,1014.0,11111222 
TABS,ioos:station:wmo:42043:1,2015-08-11T10:00:00Z,28.9818,-94.9186,1013.91,11111222 
TABS,ioos:station:wmo:42043:1,2015-08-11T10:30:00Z,28.9818,-94.9186,1014.23,11111222 
TABS,ioos:station:wmo:42043:1,2015-08-11T11:00:00Z,28.9818,-94.9186,1014.48,11111222 
TABS,ioos:station:wmo:42043:1,2015-08-11T11:30:00Z,28.9818,-94.9186,1014.67,11111222 
TABS,ioos:station:wmo:42043:1,2015-08-11T12:00:00Z,28.9818,-94.9186,1014.92,11111222 
TABS,ioos:station:wmo:42043:1,2015-08-11T12:30:00Z,28.9818,-94.9186,1015.1,11111222 
TABS,ioos:station:wmo:42043:1,2015-08-11T13:00:00Z,28.9818,-94.9186,1015.38,11111222 
TABS,ioos:station:wmo:42043:1,2015-08-11T13:30:00Z,28.9818,-94.9186,1015.72,11111222 
TABS,ioos:station:wmo:42043:1,2015-08-11T14:00:00Z,28.9818,-94.9186,1016.02,11111222 
TABS,ioos:station:wmo:42043:1,2015-08-11T14:30:00Z,28.9818,-94.9186,1016.34,11111222 
TABS,ioos:station:wmo:42043:1,2015-08-11T15:00:00Z,28.9818,-94.9186,1016.49,11111222 
TABS,ioos:station:wmo:42043:1,2015-08-11T15:30:00Z,28.9818,-94.9186,1016.5,11111222 
TABS,ioos:station:wmo:42043:1,2015-08-11T16:00:00Z,28.9818,-94.9186,1016.4,11111222 
TABS,ioos:station:wmo:42043:1,2015-08-11T16:30:00Z,28.9818,-94.9186,1016.38,11111222 
TABS,ioos:station:wmo:42043:1,2015-08-11T17:00:00Z,28.9818,-94.9186,1016.34,11111222 
TABS,ioos:station:wmo:42043:1,2015-08-11T17:30:00Z,28.9818,-94.9186,1016.23,11111222 
TABS,ioos:station:wmo:42043:1,2015-08-11T18:00:00Z,28.9818,-94.9186,1016.07,11111222 
TABS,ioos:station:wmo:42043:1,2015-08-11T18:30:00Z,28.9818,-94.9186,1015.95,11111222 
TABS,ioos:station:wmo:42043:1,2015-08-11T19:00:00Z,28.9818,-94.9186,1015.67,11111222 
TABS,ioos:station:wmo:42043:1,2015-08-11T19:30:00Z,28.9818,-94.9186,1015.42,11111222 
TABS,ioos:station:wmo:42043:1,2015-08-11T20:00:00Z,28.9818,-94.9186,1014.83,11111222 
TABS,ioos:station:wmo:42043:1,2015-08-11T20:30:00Z,28.9818,-94.9186,1014.58,11111222 
TABS,ioos:station:wmo:42043:1,2015-08-11T21:00:00Z,28.9818,-94.9186,1014.23,11111222 
TABS,ioos:station:wmo:42043:1,2015-08-11T21:30:00Z,28.9818,-94.9186,1013.77,11111222 
TABS,ioos:station:wmo:42043:1,2015-08-11T22:00:00Z,28.9818,-94.9186,1014.08,11111222 
TABS,ioos:station:wmo:42043:1,2015-08-11T22:30:00Z,28.9818,-94.9186,1014.64,11111222 
TABS,ioos:station:wmo:42043:1,2015-08-11T23:00:00Z,28.9818,-94.9186,1014.43,11111222 
TABS,ioos:station:wmo:42043:1,2015-08-11T23:30:00Z,28.9818,-94.9186,1014.96,11111222 
TABS,ioos:station:wmo:42043:1,2015-08-12T00:00:00Z,28.9818,-94.9186,1015.61,11111222 
TABS,ioos:station:wmo:42043:1,2015-08-12T00:30:00Z,28.9818,-94.9186,1015.75,11111222 
TABS,ioos:station:wmo:42043:1,2015-08-12T01:00:00Z,28.9818,-94.9186,1016.03,11111222 
TABS,ioos:station:wmo:42043:1,2015-08-12T01:30:00Z,28.9818,-94.9186,1015.92,11111222 
TABS,ioos:station:wmo:42043:1,2015-08-12T02:00:00Z,28.9818,-94.9186,1015.88,11111222 
TABS,ioos:station:wmo:42043:1,2015-08-12T02:30:00Z,28.9818,-94.9186,1016.31,11111222 
TABS,ioos:station:wmo:42043:1,2015-08-12T03:00:00Z,28.9818,-94.9186,1016.5,11111222 
TABS,ioos:station:wmo:42043:1,2015-08-12T03:30:00Z,28.9818,-94.9186,1017.07,11111222 
TABS,ioos:station:wmo:42043:1,2015-08-12T04:00:00Z,28.9818,-94.9186,1017.19,11111222 
TABS,ioos:station:wmo:42043:1,2015-08-12T04:30:00Z,28.9818,-94.9186,1016.13,11111222 
TABS,ioos:station:wmo:42043:1,2015-08-12T05:00:00Z,28.9818,-94.9186,1015.8,11111222 
TABS,ioos:station:wmo:42043:1,2015-08-12T05:30:00Z,28.9818,-94.9186,1015.48,11111222 
TABS,ioos:station:wmo:42043:1,2015-08-12T06:00:00Z,28.9818,-94.9186,1015.53,11111222 
TABS,ioos:station:wmo:42043:1,2015-08-12T06:30:00Z,28.9818,-94.9186,1015.61,11111222 
TABS,ioos:station:wmo:42043:1,2015-08-12T07:00:00Z,28.9818,-94.9186,1015.65,11111222 
TABS,ioos:station:wmo:42043:1,2015-08-12T07:30:00Z,28.9818,-94.9186,1015.41,11111222 
TABS,ioos:station:wmo:42043:1,2015-08-12T08:00:00Z,28.9818,-94.9186,1015.49,11111222 
TABS,ioos:station:wmo:42043:1,2015-08-12T08:30:00Z,28.9818,-94.9186,1015.48,11111222 
TABS,ioos:station:wmo:42043:1,2015-08-12T09:00:00Z,28.9818,-94.9186,1015.47,11111222 
TABS,ioos:station:wmo:42043:1,2015-08-12T09:30:00Z,28.9818,-94.9186,1015.88,11111222 
TABS,ioos:station:wmo:42043:1,2015-08-12T10:00:00Z,28.9818,-94.9186,1015.97,11111222 
TABS,ioos:station:wmo:42043:1,2015-08-12T10:30:00Z,28.9818,-94.9186,1016.18,11111222 
TABS,ioos:station:wmo:42043:1,2015-08-12T11:00:00Z,28.9818,-94.9186,1016.4,11111222 
TABS,ioos:station:wmo:42043:1,2015-08-12T11:30:00Z,28.9818,-94.9186,1016.47,11111222 
TABS,ioos:station:wmo:42043:1,2015-08-12T12:00:00Z,28.9818,-94.9186,1016.78,11111222 
TABS,ioos:station:wmo:42043:1,2015-08-12T12:30:00Z,28.9818,-94.9186,1016.97,11111222 
TABS,ioos:station:wmo:42043:1,2015-08-12T13:00:00Z,28.9818,-94.9186,1017.14,11111222 
TABS,ioos:station:wmo:42043:1,2015-08-12T13:30:00Z,28.9818,-94.9186,1017.61,11111222 
TABS,ioos:station:wmo:42043:1,2015-08-12T14:00:00Z,28.9818,-94.9186,1017.9,11111222 
TABS,ioos:station:wmo:42043:1,2015-08-12T14:30:00Z,28.9818,-94.9186,1018.19,11111222 
TABS,ioos:station:wmo:42043:1,2015-08-12T15:00:00Z,28.9818,-94.9186,1018.22,11111222 
TABS,ioos:station:wmo:42043:1,2015-08-12T15:30:00Z,28.9818,-94.9186,1018.06,11111222 
TABS,ioos:station:wmo:42043:1,2015-08-12T16:00:00Z,28.9818,-94.9186,1018.28,11111222 
TABS,ioos:station:wmo:42043:1,2015-08-12T16:30:00Z,28.9818,-94.9186,1018.24,11111222 
TABS,ioos:station:wmo:42043:1,2015-08-12T17:00:00Z,28.9818,-94.9186,1018.18,11111222 
TABS,ioos:station:wmo:42043:1,2015-08-12T17:30:00Z,28.9818,-94.9186,1017.98,11111222 
TABS,ioos:station:wmo:42043:1,2015-08-12T18:00:00Z,28.9818,-94.9186,1017.49,11111222 
TABS,ioos:station:wmo:42043:1,2015-08-12T18:30:00Z,28.9818,-94.9186,1017.37,11111222 
TABS,ioos:station:wmo:42043:1,2015-08-12T19:00:00Z,28.9818,-94.9186,1017.07,11111222 
TABS,ioos:station:wmo:42043:1,2015-08-12T19:30:00Z,28.9818,-94.9186,1016.71,11111222 
TABS,ioos:station:wmo:42043:1,2015-08-12T20:00:00Z,28.9818,-94.9186,1016.38,11111222 
TABS,ioos:station:wmo:42043:1,2015-08-12T20:30:00Z,28.9818,-94.9186,1016.02,11111222 
TABS,ioos:station:wmo:42043:1,2015-08-12T21:00:00Z,28.9818,-94.9186,1015.85,11111222 
TABS,ioos:station:wmo:42043:1,2015-08-12T21:30:00Z,28.9818,-94.9186,1015.51,11111222 
TABS,ioos:station:wmo:42043:1,2015-08-12T22:00:00Z,28.9818,-94.9186,1015.22,11111222 
TABS,ioos:station:wmo:42043:1,2015-08-12T22:30:00Z,28.9818,-94.9186,1014.99,11111222 
TABS,ioos:station:wmo:42043:1,2015-08-12T23:00:00Z,28.9818,-94.9186,1014.73,11111222 
TABS,ioos:station:wmo:42043:1,2015-08-12T23:30:00Z,28.9818,-94.9186,1014.26,11111222 
TABS,ioos:station:wmo:42043:1,2015-08-13T00:00:00Z,28.9818,-94.9186,1014.09,11111222 
TABS,ioos:station:wmo:42043:1,2015-08-13T00:30:00Z,28.9818,-94.9186,1013.99,11111222 
TABS,ioos:station:wmo:42043:1,2015-08-13T01:00:00Z,28.9818,-94.9186,1014.12,11111222 
TABS,ioos:station:wmo:42043:1,2015-08-13T01:30:00Z,28.9818,-94.9186,1014.56,11111222 
TABS,ioos:station:wmo:42043:1,2015-08-13T02:00:00Z,28.9818,-94.9186,1014.54,11111222 
TABS,ioos:station:wmo:42043:1,2015-08-13T02:30:00Z,28.9818,-94.9186,1014.73,11111222 
TABS,ioos:station:wmo:42043:1,2015-08-13T03:00:00Z,28.9818,-94.9186,1015.17,11111222 
TABS,ioos:station:wmo:42043:1,2015-08-13T03:30:00Z,28.9818,-94.9186,1015.52,11111222 
TABS,ioos:station:wmo:42043:1,2015-08-13T04:00:00Z,28.9818,-94.9186,1015.77,11111222 
TABS,ioos:station:wmo:42043:1,2015-08-13T04:30:00Z,28.9818,-94.9186,1015.46,11111222 
TABS,ioos:station:wmo:42043:1,2015-08-13T05:00:00Z,28.9818,-94.9186,1015.29,11111222 
TABS,ioos:station:wmo:42043:1,2015-08-13T05:30:00Z,28.9818,-94.9186,1015.17,11111222 
TABS,ioos:station:wmo:42043:1,2015-08-13T06:00:00Z,28.9818,-94.9186,1015.21,11111222 
TABS,ioos:station:wmo:42043:1,2015-08-13T06:30:00Z,28.9818,-94.9186,1014.85,11111222 
TABS,ioos:station:wmo:42043:1,2015-08-13T07:00:00Z,28.9818,-94.9186,1014.73,11111222 
TABS,ioos:station:wmo:42043:1,2015-08-13T07:30:00Z,28.9818,-94.9186,1014.6,11111222 
TABS,ioos:station:wmo:42043:1,2015-08-13T08:00:00Z,28.9818,-94.9186,1014.7,11111222 
TABS,ioos:station:wmo:42043:1,2015-08-13T08:30:00Z,28.9818,-94.9186,1014.62,11111222 
TABS,ioos:station:wmo:42043:1,2015-08-13T09:00:00Z,28.9818,-94.9186,1015.0,11111222 
TABS,ioos:station:wmo:42043:1,2015-08-13T09:30:00Z,28.9818,-94.9186,1015.18,11111222 
TABS,ioos:station:wmo:42043:1,2015-08-13T10:00:00Z,28.9818,-94.9186,1015.37,11111222 
TABS,ioos:station:wmo:42043:1,2015-08-13T10:30:00Z,28.9818,-94.9186,1015.58,11111222 
TABS,ioos:station:wmo:42043:1,2015-08-13T11:00:00Z,28.9818,-94.9186,1015.3,11111222 
TABS,ioos:station:wmo:42043:1,2015-08-13T11:30:00Z,28.9818,-94.9186,1015.31,11111222 
TABS,ioos:station:wmo:42043:1,2015-08-13T12:00:00Z,28.9818,-94.9186,1015.78,11111222 
TABS,ioos:station:wmo:42043:1,2015-08-13T12:30:00Z,28.9818,-94.9186,1015.65,11111222 
TABS,ioos:station:wmo:42043:1,2015-08-13T13:00:00Z,28.9818,-94.9186,1016.25,11111222 
TABS,ioos:station:wmo:42043:1,2015-08-13T13:30:00Z,28.9818,-94.9186,1016.52,11111222 
TABS,ioos:station:wmo:42043:1,2015-08-13T14:00:00Z,28.9818,-94.9186,1016.96,11111222 
TABS,ioos:station:wmo:42043:1,2015-08-13T14:30:00Z,28.9818,-94.9186,1017.64,11111222 
TABS,ioos:station:wmo:42043:1,2015-08-13T15:00:00Z,28.9818,-94.9186,1017.32,11111222 
TABS,ioos:station:wmo:42043:1,2015-08-13T15:30:00Z,28.9818,-94.9186,1016.95,11111222 
TABS,ioos:station:wmo:42043:1,2015-08-13T16:00:00Z,28.9818,-94.9186,1017.03,11111222 
TABS,ioos:station:wmo:42043:1,2015-08-13T16:30:00Z,28.9818,-94.9186,1016.9,11111222 
TABS,ioos:station:wmo:42043:1,2015-08-13T17:00:00Z,28.9818,-94.9186,1016.54,11111222 
TABS,ioos:station:wmo:42043:1,2015-08-13T17:30:00Z,28.9818,-94.9186,1016.01,11111222 
TABS,ioos:station:wmo:42043:1,2015-08-13T18:00:00Z,28.9818,-94.9186,1015.72,11111222 
TABS,ioos:station:wmo:42043:1,2015-08-13T18:30:00Z,28.9818,-94.9186,1015.56,11111222 
TABS,ioos:station:wmo:42043:1,2015-08-13T19:00:00Z,28.9818,-94.9186,1015.41,11111222 
TABS,ioos:station:wmo:42043:1,2015-08-13T19:30:00Z,28.9818,-94.9186,1015.19,11111222 
TABS,ioos:station:wmo:42043:1,2015-08-13T20:00:00Z,28.9818,-94.9186,1014.84,11111222 
TABS,ioos:station:wmo:42043:1,2015-08-13T20:30:00Z,28.9818,-94.9186,1014.6,11111222 
TABS,ioos:station:wmo:42043:1,2015-08-13T21:00:00Z,28.9818,-94.9186,1014.17,11111222 
TABS,ioos:station:wmo:42043:1,2015-08-13T21:30:00Z,28.9818,-94.9186,1013.98,11111222 
TABS,ioos:station:wmo:42043:1,2015-08-13T22:00:00Z,28.9818,-94.9186,1013.86,11111222 
TABS,ioos:station:wmo:42043:1,2015-08-13T22:30:00Z,28.9818,-94.9186,1013.8,11111222 
TABS,ioos:station:wmo:42043:1,2015-08-13T23:00:00Z,28.9818,-94.9186,1013.52,11111222 
TABS,ioos:station:wmo:42043:1,2015-08-13T23:30:00Z,28.9818,-94.9186,1013.39,11111222 
TABS,ioos:station:wmo:42043:1,2015-08-14T00:00:00Z,28.9818,-94.9186,1013.49,11111222 
TABS,ioos:station:wmo:42043:1,2015-08-14T00:30:00Z,28.9818,-94.9186,1013.51,11111222 
TABS,ioos:station:wmo:42043:1,2015-08-14T01:00:00Z,28.9818,-94.9186,1013.96,11111222 
TABS,ioos:station:wmo:42043:1,2015-08-14T01:30:00Z,28.9818,-94.9186,1014.12,11111222 
TABS,ioos:station:wmo:42043:1,2015-08-14T02:00:00Z,28.9818,-94.9186,1014.7,11111222 
TABS,ioos:station:wmo:42043:1,2015-08-14T02:30:00Z,28.9818,-94.9186,1014.91,11111222 
TABS,ioos:station:wmo:42043:1,2015-08-14T03:00:00Z,28.9818,-94.9186,1015.1,11111222 
TABS,ioos:station:wmo:42043:1,2015-08-14T03:30:00Z,28.9818,-94.9186,1015.28,11111222 
TABS,ioos:station:wmo:42043:1,2015-08-14T04:00:00Z,28.9818,-94.9186,1015.36,11111222 
TABS,ioos:station:wmo:42043:1,2015-08-14T04:30:00Z,28.9818,-94.9186,1015.24,11111222 
TABS,ioos:station:wmo:42043:1,2015-08-14T05:00:00Z,28.9818,-94.9186,1015.29,11111222 
TABS,ioos:station:wmo:42043:1,2015-08-14T05:30:00Z,28.9818,-94.9186,1015.02,11111222 
TABS,ioos:station:wmo:42043:1,2015-08-14T06:00:00Z,28.9818,-94.9186,1015.08,11111222 
TABS,ioos:station:wmo:42043:1,2015-08-14T06:30:00Z,28.9818,-94.9186,1015.04,11111222 
TABS,ioos:station:wmo:42043:1,2015-08-14T07:00:00Z,28.9818,-94.9186,1014.89,11111222 
TABS,ioos:station:wmo:42043:1,2015-08-14T07:30:00Z,28.9818,-94.9186,1014.6,11111222 
TABS,ioos:station:wmo:42043:1,2015-08-14T08:00:00Z,28.9818,-94.9186,1014.44,11111222 